Time,TemperatureF,DewpointF,PressureIn,WindDirection,WindDirectionDegrees,WindSpeedMPH,WindSpeedGustMPH,Humidity,HourlyPrecipIn,Conditions,Clouds,dailyrainin,SoftwareType,DateUTC
2013-03-02 00:02:00,27.0,26.0,30.04,WSW,258,4.0,-999.0,96,-99.99,,,-99.99,,2013-03-02 05:02:00,
2013-03-02 00:12:00,27.0,26.0,30.04,WSW,258,4.0,-999.0,96,-99.99,,,-99.99,,2013-03-02 05:12:00,
2013-03-02 00:22:00,27.0,26.0,30.04,West,272,3.0,-999.0,95,-99.99,,,-99.99,,2013-03-02 05:22:00,
2013-03-02 00:32:00,27.0,26.0,30.04,West,272,3.0,-999.0,95,-99.99,,,-99.99,,2013-03-02 05:32:00,
2013-03-02 00:42:00,27.0,26.0,30.04,West,272,3.0,-999.0,95,-99.99,,,-99.99,,2013-03-02 05:42:00,
2013-03-02 00:52:00,27.0,26.0,30.03,WNW,299,3.0,-999.0,95,-99.99,,,-99.99,,2013-03-02 05:52:00,
2013-03-02 01:01:00,27.0,26.0,30.03,WNW,299,3.0,-999.0,95,-99.99,,,-99.99,,2013-03-02 06:01:00,
2013-03-02 01:11:00,27.0,26.0,30.03,WNW,299,3.0,-999.0,95,-99.99,,,-99.99,,2013-03-02 06:11:00,
2013-03-02 01:21:00,27.0,26.0,30.03,WSW,247,3.0,-999.0,95,-99.99,,,-99.99,,2013-03-02 06:21:00,
2013-03-02 01:32:00,27.0,26.0,30.03,WSW,247,3.0,-999.0,95,-99.99,,,-99.99,,2013-03-02 06:32:00,
2013-03-02 01:42:00,27.0,26.0,30.03,WSW,247,3.0,-999.0,95,-99.99,,,-99.99,,2013-03-02 06:42:00,
2013-03-02 01:52:00,27.0,26.0,30.03,West,260,4.0,-999.0,95,-99.99,,,-99.99,,2013-03-02 06:52:00,
2013-03-02 02:01:00,27.0,26.0,30.03,West,260,4.0,-999.0,95,-99.99,,,-99.99,,2013-03-02 07:01:00,
2013-03-02 02:11:00,27.0,26.0,30.03,West,264,4.0,-999.0,96,-99.99,,,-99.99,,2013-03-02 07:11:00,
2013-03-02 02:21:00,27.0,26.0,30.03,West,264,4.0,-999.0,96,-99.99,,,-99.99,,2013-03-02 07:21:00,
2013-03-02 02:32:00,27.0,26.0,30.03,West,264,4.0,-999.0,96,-99.99,,,-99.99,,2013-03-02 07:32:00,
2013-03-02 02:42:00,27.0,26.0,30.03,West,264,4.0,-999.0,96,-99.99,,,-99.99,,2013-03-02 07:42:00,
2013-03-02 02:52:00,27.0,26.0,30.02,WSW,253,5.0,-999.0,96,-99.99,,,-99.99,,2013-03-02 07:52:00,
2013-03-02 03:01:00,27.0,26.0,30.02,WSW,253,5.0,-999.0,96,-99.99,,,-99.99,,2013-03-02 08:01:00,
2013-03-02 03:11:00,27.0,26.0,30.02,WSW,253,5.0,-999.0,96,-99.99,,,-99.99,,2013-03-02 08:11:00,
2013-03-02 03:22:00,27.0,26.0,30.01,WSW,252,5.0,-999.0,95,-99.99,,,-99.99,,2013-03-02 08:22:00,
2013-03-02 03:32:00,27.0,26.0,30.01,WSW,252,5.0,-999.0,95,-99.99,,,-99.99,,2013-03-02 08:32:00,
2013-03-02 03:43:00,27.0,26.0,30.01,WSW,252,5.0,-999.0,95,-99.99,,,-99.99,,2013-03-02 08:43:00,
2013-03-02 03:52:00,27.0,26.0,30.00,WNW,303,3.0,-999.0,95,-99.99,,,-99.99,,2013-03-02 08:52:00,
2013-03-02 04:02:00,27.0,26.0,30.00,WNW,303,3.0,-999.0,95,-99.99,,,-99.99,,2013-03-02 09:02:00,
2013-03-02 04:11:00,27.0,26.0,29.99,West,274,1.0,-999.0,95,-99.99,,,-99.99,,2013-03-02 09:11:00,
2013-03-02 04:22:00,27.0,26.0,29.99,West,274,1.0,-999.0,95,-99.99,,,-99.99,,2013-03-02 09:22:00,
2013-03-02 04:32:00,27.0,26.0,29.99,West,274,1.0,-999.0,95,-99.99,,,-99.99,,2013-03-02 09:32:00,
2013-03-02 04:42:00,27.0,26.0,29.99,West,274,1.0,-999.0,95,-99.99,,,-99.99,,2013-03-02 09:42:00,
2013-03-02 04:52:00,27.0,26.0,29.99,WNW,295,3.0,-999.0,95,-99.99,,,-99.99,,2013-03-02 09:52:00,
2013-03-02 05:01:00,27.0,26.0,29.99,WNW,295,3.0,-999.0,95,-99.99,,,-99.99,,2013-03-02 10:01:00,
2013-03-02 05:16:00,27.0,26.0,29.99,WNW,295,3.0,-999.0,95,-99.99,,,-99.99,,2013-03-02 10:16:00,
2013-03-02 05:22:00,26.0,25.0,29.99,West,278,2.0,-999.0,95,-99.99,,,-99.99,,2013-03-02 10:22:00,
2013-03-02 05:32:00,26.0,25.0,29.99,West,278,2.0,-999.0,95,-99.99,,,-99.99,,2013-03-02 10:32:00,
2013-03-02 05:43:00,26.0,25.0,29.99,West,278,2.0,-999.0,95,-99.99,,,-99.99,,2013-03-02 10:43:00,
2013-03-02 05:52:00,26.0,25.0,29.99,WSW,245,3.0,-999.0,95,-99.99,,,-99.99,,2013-03-02 10:52:00,
2013-03-02 06:01:00,26.0,25.0,29.99,WSW,245,3.0,-999.0,95,-99.99,,,-99.99,,2013-03-02 11:01:00,
2013-03-02 06:11:00,26.0,25.0,29.99,WSW,245,3.0,-999.0,95,-99.99,,,-99.99,,2013-03-02 11:11:00,
2013-03-02 06:21:00,26.0,25.0,29.99,WNW,285,4.0,-999.0,95,-99.99,,,-99.99,,2013-03-02 11:21:00,
2013-03-02 06:32:00,26.0,25.0,29.99,WNW,285,4.0,-999.0,95,-99.99,,,-99.99,,2013-03-02 11:32:00,
2013-03-02 06:42:00,26.0,25.0,29.99,WNW,285,4.0,-999.0,95,-99.99,,,-99.99,,2013-03-02 11:42:00,
2013-03-02 06:52:00,26.0,25.0,29.99,WNW,292,4.0,-999.0,95,-99.99,,,-99.99,,2013-03-02 11:52:00,
2013-03-02 07:02:00,26.0,25.0,29.99,WNW,292,4.0,-999.0,95,-99.99,,,-99.99,,2013-03-02 12:02:00,
2013-03-02 07:11:00,26.0,25.0,29.99,WNW,292,4.0,-999.0,95,-99.99,,,-99.99,,2013-03-02 12:11:00,
2013-03-02 07:22:00,26.0,25.0,29.99,SW,220,2.0,-999.0,95,-99.99,,,-99.99,,2013-03-02 12:22:00,
2013-03-02 07:33:00,26.0,25.0,29.99,SW,220,2.0,-999.0,95,-99.99,,,-99.99,,2013-03-02 12:33:00,
2013-03-02 07:43:00,26.0,25.0,29.99,SW,220,2.0,-999.0,95,-99.99,,,-99.99,,2013-03-02 12:43:00,
2013-03-02 07:53:00,26.0,25.0,30.00,SW,235,2.0,-999.0,95,-99.99,,,-99.99,,2013-03-02 12:53:00,
2013-03-02 08:01:00,26.0,25.0,30.00,SW,235,2.0,-999.0,95,-99.99,,,-99.99,,2013-03-02 13:01:00,
2013-03-02 08:11:00,26.0,25.0,30.00,SW,235,2.0,-999.0,95,-99.99,,,-99.99,,2013-03-02 13:11:00,
2013-03-02 08:22:00,27.0,26.0,30.00,SSW,199,2.0,-999.0,95,-99.99,,,-99.99,,2013-03-02 13:22:00,
2013-03-02 08:32:00,27.0,26.0,30.00,SSW,199,2.0,-999.0,95,-99.99,,,-99.99,,2013-03-02 13:32:00,
2013-03-02 08:42:00,27.0,26.0,30.00,SSW,199,2.0,-999.0,95,-99.99,,,-99.99,,2013-03-02 13:42:00,
2013-03-02 08:52:00,27.0,26.0,30.01,NE,40,2.0,-999.0,96,-99.99,,,-99.99,,2013-03-02 13:52:00,
2013-03-02 09:01:00,27.0,26.0,30.01,NE,40,2.0,-999.0,96,-99.99,,,-99.99,,2013-03-02 14:01:00,
2013-03-02 09:11:00,27.0,26.0,30.01,NE,40,2.0,-999.0,96,-99.99,,,-99.99,,2013-03-02 14:11:00,
2013-03-02 09:22:00,27.0,26.0,30.02,SSW,200,1.0,-999.0,95,-99.99,,,-99.99,,2013-03-02 14:22:00,
2013-03-02 09:32:00,27.0,26.0,30.02,SSW,200,1.0,-999.0,95,-99.99,,,-99.99,,2013-03-02 14:32:00,
2013-03-02 09:42:00,27.0,26.0,30.02,SSW,200,1.0,-999.0,95,-99.99,,,-99.99,,2013-03-02 14:42:00,
2013-03-02 09:52:00,27.0,26.0,30.02,West,280,2.0,-999.0,96,-99.99,,,-99.99,,2013-03-02 14:52:00,
2013-03-02 10:02:00,27.0,26.0,30.02,West,280,2.0,-999.0,96,-99.99,,,-99.99,,2013-03-02 15:02:00,
2013-03-02 10:11:00,27.0,26.0,30.02,West,280,2.0,-999.0,96,-99.99,,,-99.99,,2013-03-02 15:11:00,
2013-03-02 10:22:00,27.0,26.0,30.03,South,174,1.0,-999.0,95,-99.99,,,-99.99,,2013-03-02 15:22:00,
2013-03-02 10:32:00,27.0,26.0,30.03,South,174,1.0,-999.0,95,-99.99,,,-99.99,,2013-03-02 15:32:00,
2013-03-02 10:42:00,27.0,26.0,30.03,South,174,1.0,-999.0,95,-99.99,,,-99.99,,2013-03-02 15:42:00,
2013-03-02 10:52:00,27.0,26.0,30.03,SSW,203,4.0,-999.0,95,-99.99,,,-99.99,,2013-03-02 15:52:00,
2013-03-02 11:02:00,27.0,26.0,30.03,SSW,203,4.0,-999.0,95,-99.99,,,-99.99,,2013-03-02 16:02:00,
2013-03-02 11:11:00,27.0,26.0,30.03,SSW,203,4.0,-999.0,95,-99.99,,,-99.99,,2013-03-02 16:11:00,
2013-03-02 11:21:00,26.0,25.0,30.04,WNW,291,4.0,-999.0,95,-99.99,,,-99.99,,2013-03-02 16:21:00,
2013-03-02 11:32:00,26.0,25.0,30.04,WNW,291,4.0,-999.0,95,-99.99,,,-99.99,,2013-03-02 16:32:00,
2013-03-02 11:42:00,26.0,25.0,30.04,WNW,291,4.0,-999.0,95,-99.99,,,-99.99,,2013-03-02 16:42:00,
2013-03-02 11:52:00,26.0,25.0,30.04,WNW,285,4.0,-999.0,95,-99.99,,,-99.99,,2013-03-02 16:52:00,
2013-03-02 12:01:00,26.0,25.0,30.04,WNW,285,4.0,-999.0,95,-99.99,,,-99.99,,2013-03-02 17:01:00,
2013-03-02 12:12:00,26.0,25.0,30.04,WNW,285,4.0,-999.0,95,-99.99,,,-99.99,,2013-03-02 17:12:00,
2013-03-02 12:21:00,26.0,25.0,30.05,SSW,213,6.0,-999.0,95,-99.99,,,-99.99,,2013-03-02 17:21:00,
2013-03-02 12:32:00,26.0,25.0,30.05,SSW,213,6.0,-999.0,95,-99.99,,,-99.99,,2013-03-02 17:32:00,
2013-03-02 12:42:00,26.0,25.0,30.05,SSW,213,6.0,-999.0,95,-99.99,,,-99.99,,2013-03-02 17:42:00,
2013-03-02 12:52:00,26.0,25.0,30.04,SSW,212,4.0,-999.0,95,-99.99,,,-99.99,,2013-03-02 17:52:00,
2013-03-02 13:02:00,26.0,25.0,30.04,SSW,212,4.0,-999.0,95,-99.99,,,-99.99,,2013-03-02 18:02:00,
2013-03-02 13:12:00,26.0,25.0,30.04,SSW,212,4.0,-999.0,95,-99.99,,,-99.99,,2013-03-02 18:12:00,
2013-03-02 13:22:00,26.0,24.0,30.04,West,262,5.0,-999.0,93,-99.99,,,-99.99,,2013-03-02 18:22:00,
2013-03-02 13:32:00,26.0,24.0,30.04,West,262,5.0,-999.0,93,-99.99,,,-99.99,,2013-03-02 18:32:00,
2013-03-02 13:42:00,26.0,24.0,30.04,West,262,5.0,-999.0,93,-99.99,,,-99.99,,2013-03-02 18:42:00,
2013-03-02 13:52:00,26.0,24.0,30.03,North,359,6.0,-999.0,91,-99.99,,,-99.99,,2013-03-02 18:52:00,
2013-03-02 14:01:00,26.0,24.0,30.03,North,359,6.0,-999.0,91,-99.99,,,-99.99,,2013-03-02 19:01:00,
2013-03-02 14:12:00,26.0,24.0,30.03,North,359,6.0,-999.0,91,-99.99,,,-99.99,,2013-03-02 19:12:00,
2013-03-02 14:22:00,27.0,24.0,30.03,WSW,250,3.0,-999.0,90,-99.99,,,-99.99,,2013-03-02 19:22:00,
2013-03-02 14:32:00,27.0,24.0,30.03,WSW,250,3.0,-999.0,90,-99.99,,,-99.99,,2013-03-02 19:32:00,
2013-03-02 14:42:00,27.0,24.0,30.03,WSW,250,3.0,-999.0,90,-99.99,,,-99.99,,2013-03-02 19:42:00,
2013-03-02 14:52:00,27.0,24.0,30.03,West,270,5.0,-999.0,89,-99.99,,,-99.99,,2013-03-02 19:52:00,
2013-03-02 15:01:00,27.0,24.0,30.03,West,270,5.0,-999.0,89,-99.99,,,-99.99,,2013-03-02 20:01:00,
2013-03-02 15:11:00,27.0,24.0,30.03,West,270,5.0,-999.0,89,-99.99,,,-99.99,,2013-03-02 20:11:00,
2013-03-02 15:22:00,27.0,24.0,30.03,WNW,298,5.0,-999.0,89,-99.99,,,-99.99,,2013-03-02 20:22:00,
2013-03-02 15:32:00,27.0,24.0,30.03,WNW,298,5.0,-999.0,89,-99.99,,,-99.99,,2013-03-02 20:32:00,
2013-03-02 15:42:00,27.0,24.0,30.03,WNW,298,5.0,-999.0,89,-99.99,,,-99.99,,2013-03-02 20:42:00,
2013-03-02 15:53:00,27.0,24.0,30.02,NW,304,5.0,-999.0,89,-99.99,,,-99.99,,2013-03-02 20:53:00,
2013-03-02 16:02:00,27.0,24.0,30.02,NW,304,5.0,-999.0,89,-99.99,,,-99.99,,2013-03-02 21:02:00,
2013-03-02 16:12:00,27.0,24.0,30.02,NW,304,5.0,-999.0,89,-99.99,,,-99.99,,2013-03-02 21:12:00,
2013-03-02 16:22:00,27.0,25.0,30.03,WSW,247,2.0,-999.0,91,-99.99,,,-99.99,,2013-03-02 21:22:00,
2013-03-02 16:32:00,27.0,25.0,30.03,WSW,247,2.0,-999.0,91,-99.99,,,-99.99,,2013-03-02 21:32:00,
2013-03-02 16:42:00,27.0,25.0,30.03,WSW,247,2.0,-999.0,91,-99.99,,,-99.99,,2013-03-02 21:42:00,
2013-03-02 16:52:00,27.0,25.0,30.04,West,270,4.0,-999.0,91,-99.99,,,-99.99,,2013-03-02 21:52:00,
2013-03-02 17:02:00,27.0,25.0,30.04,West,270,4.0,-999.0,91,-99.99,,,-99.99,,2013-03-02 22:02:00,
2013-03-02 17:12:00,27.0,25.0,30.04,West,270,4.0,-999.0,91,-99.99,,,-99.99,,2013-03-02 22:12:00,
2013-03-02 17:22:00,27.0,25.0,30.04,NW,308,3.0,-999.0,92,-99.99,,,-99.99,,2013-03-02 22:22:00,
2013-03-02 17:32:00,27.0,25.0,30.04,NW,308,3.0,-999.0,92,-99.99,,,-99.99,,2013-03-02 22:32:00,
2013-03-02 17:42:00,27.0,25.0,30.04,NW,308,3.0,-999.0,92,-99.99,,,-99.99,,2013-03-02 22:42:00,
2013-03-02 17:52:00,27.0,25.0,30.04,WNW,303,5.0,-999.0,92,-99.99,,,-99.99,,2013-03-02 22:52:00,
2013-03-02 18:01:00,27.0,25.0,30.04,WNW,303,5.0,-999.0,92,-99.99,,,-99.99,,2013-03-02 23:01:00,
2013-03-02 18:12:00,27.0,25.0,30.05,West,270,4.0,-999.0,92,-99.99,,,-99.99,,2013-03-02 23:12:00,
2013-03-02 18:21:00,27.0,25.0,30.05,West,270,4.0,-999.0,92,-99.99,,,-99.99,,2013-03-02 23:21:00,
2013-03-02 18:32:00,27.0,25.0,30.05,West,270,4.0,-999.0,92,-99.99,,,-99.99,,2013-03-02 23:32:00,
2013-03-02 18:42:00,27.0,25.0,30.05,West,270,4.0,-999.0,92,-99.99,,,-99.99,,2013-03-02 23:42:00,
2013-03-02 18:52:00,27.0,25.0,30.06,WNW,300,5.0,-999.0,92,-99.99,,,-99.99,,2013-03-02 23:52:00,
2013-03-02 19:02:00,27.0,25.0,30.06,WNW,300,5.0,-999.0,92,-99.99,,,-99.99,,2013-03-03 00:02:00,
2013-03-02 19:11:00,27.0,25.0,30.06,WNW,300,5.0,-999.0,92,-99.99,,,-99.99,,2013-03-03 00:11:00,
2013-03-02 19:22:00,26.0,24.0,30.06,West,272,4.0,-999.0,93,-99.99,,,-99.99,,2013-03-03 00:22:00,
2013-03-02 19:32:00,26.0,24.0,30.06,West,272,4.0,-999.0,93,-99.99,,,-99.99,,2013-03-03 00:32:00,
2013-03-02 19:42:00,26.0,24.0,30.06,West,272,4.0,-999.0,93,-99.99,,,-99.99,,2013-03-03 00:42:00,
2013-03-02 19:52:00,26.0,24.0,30.06,West,272,5.0,-999.0,93,-99.99,,,-99.99,,2013-03-03 00:52:00,
2013-03-02 20:01:00,26.0,24.0,30.06,West,272,5.0,-999.0,93,-99.99,,,-99.99,,2013-03-03 01:01:00,
2013-03-02 20:11:00,26.0,24.0,30.06,West,272,5.0,-999.0,93,-99.99,,,-99.99,,2013-03-03 01:11:00,
2013-03-02 20:21:00,26.0,24.0,30.06,West,260,5.0,-999.0,92,-99.99,,,-99.99,,2013-03-03 01:21:00,
2013-03-02 20:32:00,26.0,24.0,30.06,West,260,5.0,-999.0,92,-99.99,,,-99.99,,2013-03-03 01:32:00,
2013-03-02 20:42:00,26.0,24.0,30.06,West,260,5.0,-999.0,92,-99.99,,,-99.99,,2013-03-03 01:42:00,
2013-03-02 20:52:00,25.0,23.0,30.06,NW,325,5.0,-999.0,92,-99.99,,,-99.99,,2013-03-03 01:52:00,
2013-03-02 21:01:00,25.0,23.0,30.06,NW,325,5.0,-999.0,92,-99.99,,,-99.99,,2013-03-03 02:01:00,
2013-03-02 21:11:00,25.0,23.0,30.07,WNW,284,5.0,-999.0,91,-99.99,,,-99.99,,2013-03-03 02:11:00,
2013-03-02 21:21:00,25.0,23.0,30.07,WNW,284,5.0,-999.0,91,-99.99,,,-99.99,,2013-03-03 02:21:00,
2013-03-02 21:32:00,25.0,23.0,30.07,WNW,284,5.0,-999.0,91,-99.99,,,-99.99,,2013-03-03 02:32:00,
2013-03-02 21:42:00,25.0,23.0,30.07,WNW,284,5.0,-999.0,91,-99.99,,,-99.99,,2013-03-03 02:42:00,
2013-03-02 21:52:00,25.0,22.0,30.08,West,268,2.0,-999.0,90,-99.99,,,-99.99,,2013-03-03 02:52:00,
2013-03-02 22:01:00,25.0,22.0,30.08,West,268,2.0,-999.0,90,-99.99,,,-99.99,,2013-03-03 03:01:00,
2013-03-02 22:11:00,25.0,22.0,30.08,West,268,2.0,-999.0,90,-99.99,,,-99.99,,2013-03-03 03:11:00,
2013-03-02 22:21:00,25.0,22.0,30.09,WSW,258,4.0,-999.0,90,-99.99,,,-99.99,,2013-03-03 03:21:00,
2013-03-02 22:32:00,25.0,22.0,30.09,WSW,258,4.0,-999.0,90,-99.99,,,-99.99,,2013-03-03 03:32:00,
2013-03-02 22:42:00,25.0,22.0,30.09,WSW,258,4.0,-999.0,90,-99.99,,,-99.99,,2013-03-03 03:42:00,
2013-03-02 22:52:00,24.0,21.0,30.08,SSE,152,4.0,-999.0,89,-99.99,,,-99.99,,2013-03-03 03:52:00,
2013-03-02 23:01:00,24.0,21.0,30.08,SSE,152,4.0,-999.0,89,-99.99,,,-99.99,,2013-03-03 04:01:00,
2013-03-02 23:11:00,24.0,21.0,30.08,SSE,152,4.0,-999.0,89,-99.99,,,-99.99,,2013-03-03 04:11:00,
2013-03-02 23:21:00,24.0,20.0,30.08,WNW,286,4.0,-999.0,86,-99.99,,,-99.99,,2013-03-03 04:21:00,
2013-03-02 23:32:00,24.0,20.0,30.08,WNW,286,4.0,-999.0,86,-99.99,,,-99.99,,2013-03-03 04:32:00,
2013-03-02 23:42:00,24.0,20.0,30.08,WNW,286,4.0,-999.0,86,-99.99,,,-99.99,,2013-03-03 04:42:00,
2013-03-02 23:52:00,24.0,21.0,30.08,WNW,299,2.0,-999.0,88,-99.99,,,-99.99,,2013-03-03 04:52:00,